Preview of NWS' New Version of Forecast
This preview is not operational and should not be used for support decisions.

Regional Weather Roundup (RWR)

Issued by National Weather Service (NWS)

                            
000
ASUS46 KSEW 150910
RWRWA 

WASHINGTON REGIONAL WEATHER ROUNDUP
NATIONAL WEATHER SERVICE SEATTLE WA
200 AM PDT SUN SEP 15 2019

NOTE:"FAIR" INDICATES FEW OR NO CLOUDS BELOW 12,000 FEET WITH NO 
SIGNIFICANT WEATHER AND/OR OBSTRUCTIONS TO VISIBILITY.

WAZ507-509-555>559-151000-
SEATTLE, TACOMA, EVERETT, AND VICINITY
  
CITY           SKY/WX    TMP DP  RH WIND       PRES   REMARKS
EVERETT        LGT RAIN  59  57  93 S14       29.75F                  
BOEING FIELD   LGT RAIN  61  58  90 SE10      29.76F FOG              
RENTON         LGT RAIN  61  59  93 SE7       29.76F FOG              
SEATAC AIRPORT LGT RAIN  60  57  89 S14       29.77F FOG              
JBLM-MCCHORD   CLOUDY    59  59 100 S6        29.76F                  
PUYALLUP       CLOUDY    59  59 100 CALM      29.77F                  
BREMERTON      RAIN      57  56  96 S8        29.75F FOG              
JBLM-FT LEWIS  CLOUDY    61  61 100 SE12      29.74F                  
TACOMA NARROWS CLOUDY    58  54  86 S14       29.76F                  
$$
 
WAZ001-503-506-510-514-515-151000-
NORTH INTERIOR
  
CITY           SKY/WX    TMP DP  RH WIND       PRES   REMARKS
BELLINGHAM     LGT RAIN  61  56  83 S13G22    29.71S                  
FRIDAY HARBOR  LGT RAIN  57  56  96 CALM      29.73R                  
EASTSOUND      LGT RAIN  59  59 100 S13       29.70S                  
PORT ANGELES   LGT RAIN  57  57 100 NW6       29.71R FOG              
EDIZ HOOK      LGT RAIN  53  53 100 CALM      29.70S VSB 3/4          
PORT TOWNSEND  CLOUDY    61  57  88 VRB6      29.71S                  
NAS WHIDBEY    LGT RAIN  62  56  80 SE18G28   29.74F                  
ARLINGTON      LGT RAIN  60  57  89 SE15      29.74F                  
BURLINGTON     CLOUDY    59  57  94 SE8G15    29.73F                  
$$
 
WAZ020-022-039-040-504-511-512-151000-
SOUTHWEST INTERIOR
  
CITY           SKY/WX    TMP DP  RH WIND       PRES   REMARKS
SHELTON        LGT RAIN  59  57  93 S5        29.72F FOG              
OLYMPIA        CLOUDY    60  54  80 S10       29.75F                  
CHEHALIS       CLOUDY    61  57  88 VRB6      29.77F                  
KELSO          LGT RAIN  62  58  86 S6        29.81F                  
VANCOUVER      CLOUDY    64  53  67 SE5       29.83F                  
SCAPPOOSE, OR  CLOUDY    63  54  72 S3        29.81F                  
PORTLAND, OR   MOCLDY    64  53  67 SE6       29.84S                  
$$
 
WAZ021-516-517-151000-
WASHINGTON COAST
  
CITY           SKY/WX    TMP DP  RH WIND       PRES   REMARKS
FORKS          CLEAR     58  57  97 CALM      29.72S                  
HOQUIAM        LGT RAIN  60  60 100 SW10      29.74F                  
ASTORIA, OR    RAIN      61  59  93 S14G23    29.77S FOG              
$$
 
WAZ019-023-024-040-567>569-151000-
CASCADE MOUNTAINS AND COLUMBIA GORGE
  
CITY           SKY/WX    TMP DP  RH WIND       PRES   REMARKS
STAMPEDE PASS  FOG       49  47  93 CALM      29.84S VSB 1/4          
TROUTDALE, OR  CLOUDY    65  52  62 S3        29.84F                  
HOOD RIVER, OR MOSUNNY   61  52  72 W5        29.82F                  
THE DALLES, OR CLEAR     64  51  62 W8        29.79S                  
$$

WAZ026-027-041>044-520-521-151000-
EAST SLOPES
  
CITY           SKY/WX    TMP DP  RH WIND       PRES   REMARKS
OMAK           CLOUDY    62  46  55 CALM      29.76S                  
WENATCHEE      CLOUDY    61  47  59 W3        29.75F                  
ELLENSBURG     CLOUDY    56  47  71 CALM      29.78F                  
YAKIMA         MOCLDY    58  48  69 CALM      29.77S                  
SUNNYSIDE ARPT MOSUNNY   50  48  93 CALM      29.77                   
YAKIMA TC      PTSUNNY   61  46  56 E9        29.75F                  
$$

WAZ028-034-035-151000-
COLUMBIA BASIN
  
CITY           SKY/WX    TMP DP  RH WIND       PRES   REMARKS
EPHRATA        CLOUDY    62  43  49 CALM      29.75S                  
MOSES LAKE     CLOUDY    62  50  64 CALM      29.75F                  
PASCO          CLEAR     63  50  62 CALM      29.75F                  
RICHLAND ARPT  MOSUNNY   64  48  56 CALM      29.75                   
HERMISTON, OR  CLEAR     60  47  61 S9        29.77S                  
$$

WAZ036>038-151000-
NORTHEAST WASHINGTON
  
CITY           SKY/WX    TMP DP  RH WIND       PRES   REMARKS
SPOKANE GEIGER MOCLDY    56  42  59 E3        29.82F                  
SPOKANE FELTS  PTCLDY    57  48  72 NE3       29.82F                  
FAIRCHILD AFB  NOT AVBL                                               
COEURDALENE,ID PTCLDY    51  46  83 NE3       29.84F                  
DEER PARK      MOCLDY    51  48  89 NE6       29.82F                  
$$

WAZ029>033-151000-
SOUTHEAST WASHINGTON
  
CITY           SKY/WX    TMP DP  RH WIND       PRES   REMARKS
PULLMAN        CLEAR     52  42  69 CALM      29.85F                  
LEWISTON, ID   CLEAR     60  45  57 S5        29.79F                  
WALLA WALLA    CLEAR     63  47  55 SE6       29.79F                  
PENDLETON, OR  CLEAR     56  48  74 SE6       29.80S                  
$$